Regional Weather Roundup
Issued by NWS Goodland, KS

Home | Current Version | Previous Version | Graphics & Text | Print | Product List | Glossary On
Versions: 1 2 3 4 5 6 7 8 9 10 11 12 13 14 15 16 17 18 19 20 21 22 23 24 25 26 27 28 29 30 31 32 33 34 35 36 37 38 39 40 41 42 43 44 45 46 47 48 49 50
000
ASUS43 KGLD 310459
RWRGLD

GOODLAND FORECAST AREA HOURLY WEATHER ROUNDUP
NATIONAL WEATHER SERVICE GOODLAND KS
1100 PM MDT THU JUL 30 2015

...OFFICIAL OBSERVATIONS...

CITY           SKY/WX    TMP DP  RH WIND       PRES   REMARKS
GOODLAND KS    MOCLDY    72  64  76 S12       30.23S
HILL CITY KS   CLOUDY    77  67  71 S9        30.20S
IMPERIAL NEB   CLEAR     69  60  73 N8        30.24S
MCCOOK NEB     MOCLDY    73  63  70 SW5       30.20S
AKRON CO       CLEAR     69  51  52 S12       30.31F
BURLINGTON CO  MOCLDY    70  63  78 S9        30.28S
LIMON CO       PTCLDY    61  59  93 N5        30.39F
$$

...UNOFFICIAL OBSERVATIONS...

CITY           SKY/WX    TMP DP  RH WIND       PRES   REMARKS
COLBY KS       CLEAR     73  66  78 SE7       30.25S
NORTON KS      CLEAR     75  63  64 S7        30.18S
SHARON SPRINGS   N/A     70  66  86 N8          N/A
KIT CARSON CO    N/A     69  56  62 MISG        N/A
YUMA CO          N/A     66  59  79 SW5         N/A
$$


USA.gov is the U.S. government's official web portal to all federal, state and local government web resources and services.